GW5149 Weather Reports


time (UTC)temp
C
wind
direction
speed
KPH
gust
KPH
rain 1hr
cm
rain 24hr
cm
rain mn
cm
humidity
%
barometer
mb
20260506081023 7 90 0.0 3.2 0.00 0.05 0.00 69 1014.6
20260506073112 6 0.0 3.2 0.00 0.05 0.00 71 1014.5
20260506072110 6 315 0.0 3.2 0.00 0.05 0.00 71 1014.4
20260506071107 6 338 0.0 3.2 0.00 0.05 0.00 71 1014.4
20260506070106 6 22 0.0 3.2 0.00 0.05 0.00 72 1014.3
20260506062114 6 45 0.0 3.2 0.00 0.05 0.00 74 1014.1
20260506061053 6 0.0 0.0 0.00 0.05 0.00 74 1013.9
20260506051037 6 68 0.0 3.2 0.00 0.05 0.00 74 1013.9
20260506045030 6 23 0.0 3.2 0.00 0.05 0.00 74 1014.0
20260506044028 6 68 0.0 3.2 0.00 0.05 0.00 75 1014.0
20260506043105 6 68 0.0 3.2 0.00 0.05 0.00 75 1014.0
20260506042024 6 14 0.0 6.4 0.00 0.05 0.00 76 1014.0
20260506041020 6 68 0.0 3.2 0.00 0.05 0.00 77 1013.9
20260506040017 6 6 0.0 3.2 0.00 0.05 0.00 77 1013.9
20260506035015 6 338 0.0 3.2 0.00 0.05 0.00 77 1014.0
20260506034114 6 338 0.0 3.2 0.00 0.05 0.00 77 1014.1
20260506033111 6 326 0.0 3.2 0.00 0.05 0.00 77 1013.9
20260506032107 6 90 0.0 3.2 0.00 0.05 0.00 78 1014.0
20260506031104 6 90 0.0 3.2 0.00 0.05 0.00 78 1014.0
20260506025100 6 45 0.0 3.2 0.00 0.05 0.00 77 1014.2
20260506024057 6 0.0 3.2 0.00 0.05 0.00 77 1014.3
20260506023056 6 0.0 0.0 0.00 0.05 0.00 77 1014.1
20260506022051 6 0.0 0.0 0.00 0.05 0.00 78 1014.1
20260506021050 6 23 0.0 3.2 0.00 0.05 0.00 77 1014.1
20260506020107 6 23 0.0 3.2 0.00 0.05 0.00 77 1014.1
20260506015044 6 352 0.0 6.4 0.00 0.05 0.00 76 1014.0
20260506014041 6 81 1.6 6.4 0.00 0.05 0.00 76 1014.1
20260506013058 6 8 0.0 6.4 0.00 0.05 0.00 76 1014.1
20260506012036 6 46 1.6 6.4 0.00 0.05 0.00 76 1014.1
20260506011033 6 65 1.6 9.7 0.00 0.05 0.00 76 1014.1
20260506010030 6 38 1.6 6.4 0.00 0.05 0.00 78 1014.2
20260506005028 6 293 0.0 3.2 0.00 0.05 0.00 78 1014.3
20260506004025 6 0 0.0 3.2 0.00 0.05 0.00 78 1014.3
20260506003022 7 68 0.0 6.4 0.00 0.05 0.00 78 1014.3
20260506002020 7 342 1.6 6.4 0.00 0.05 0.00 78 1014.3
20260506001037 7 293 0.0 3.2 0.00 0.05 0.00 78 1014.3
20260506000115 7 11 0.0 6.4 0.00 0.05 0.00 78 1014.4
20260505235117 7 341 1.6 6.4 0.00 0.05 0.00 78 1014.3
20260505234110 7 327 0.0 6.4 0.00 0.05 0.00 78 1014.2
20260505233109 7 322 0.0 6.4 0.00 0.05 0.00 78 1014.3
20260505232105 7 0.0 3.2 0.00 0.05 0.00 78 1014.3
20260505231102 7 315 0.0 3.2 0.00 0.05 0.00 78 1014.3
20260505230059 7 0.0 3.2 0.00 0.05 0.00 78 1014.4
20260505225058 7 23 0.0 3.2 0.00 0.05 0.05 77 1014.3
20260505224054 7 68 0.0 3.2 0.00 0.05 0.05 78 1014.3
20260505223111 7 55 0.0 3.2 0.00 0.05 0.05 78 1014.4
20260505222049 7 23 0.0 3.2 0.00 0.05 0.05 78 1014.3
20260505221234 7 0.0 3.2 0.00 0.05 0.05 78 1014.2
20260505220044 7 338 0.0 3.2 0.00 0.05 0.05 78 1014.2
20260505215046 7 56 0.0 6.4 0.00 0.05 0.05 79 1014.2
20260505214039 7 45 0.0 6.4 0.00 0.05 0.05 79 1014.1
20260505213036 7 0.0 3.2 0.00 0.05 0.05 79 1014.2
20260505212034 7 83 0.0 6.4 0.00 0.05 0.05 79 1014.1
20260505211032 7 317 1.6 6.4 0.00 0.05 0.05 79 1014.0
20260505210047 7 11 1.6 6.4 0.00 0.05 0.05 79 1014.1
20260505205045 7 42 1.6 9.7 0.00 0.05 0.05 79 1014.0
20260505204026 7 115 0.0 3.2 0.00 0.05 0.05 80 1014.0
20260505203020 7 52 0.0 6.4 0.00 0.05 0.05 80 1014.1
20260505202017 7 41 1.6 6.4 0.00 0.05 0.05 79 1014.0
20260505201134 8 43 0.0 6.4 0.00 0.05 0.05 80 1014.0
20260505200112 8 62 0.0 6.4 0.00 0.05 0.05 80 1014.0
20260505195109 8 45 1.6 6.4 0.03 0.05 0.05 81 1013.8
20260505194106 8 36 0.0 6.4 0.03 0.05 0.05 82 1013.8
20260505193104 8 10 1.6 6.4 0.05 0.05 0.05 82 1013.6
20260505192101 8 99 1.6 9.7 0.05 0.05 0.05 83 1013.5
20260505191118 8 348 3.2 9.7 0.05 0.05 0.05 83 1013.4
20260505190056 8 75 1.6 9.7 0.05 0.05 0.05 84 1013.4
20260505185053 8 23 3.2 6.4 0.03 0.03 0.03 84 1013.3
20260505184051 8 329 3.2 9.7 0.03 0.03 0.03 82 1013.2
20260505183048 9 11 1.6 9.7 0.00 0.00 0.00 81 1013.2
20260505182045 9 45 1.6 6.4 0.00 0.00 0.00 80 1013.2
20260505181043 10 326 4.8 14.5 0.00 0.00 0.00 78 1013.2
20260505180041 10 21 3.2 12.9 0.00 0.00 0.00 76 1013.2
20260505175038 11 29 1.6 3.2 0.00 0.00 0.00 73 1012.9
20260505174036 11 338 0.0 3.2 0.00 0.00 0.00 71 1013.1
20260505173032 11 338 0.0 6.4 0.00 0.00 0.00 71 1013.2
20260505172030 11 0.0 3.2 0.00 0.00 0.00 71 1013.0
20260505171047 11 53 1.6 6.4 0.00 0.00 0.00 69 1012.8
20260505170025 11 324 1.6 6.4 0.00 0.00 0.00 71 1013.0
20260505165023 11 1 3.2 11.3 0.00 0.00 0.00 71 1012.9
20260505164021 11 356 4.8 11.3 0.00 0.00 0.00 70 1013.1
20260505163017 11 352 4.8 12.9 0.00 0.00 0.00 69 1012.9
20260505162114 11 341 3.2 6.4 0.00 0.00 0.00 70 1013.0
20260505161112 12 359 4.8 12.9 0.00 0.00 0.00 69 1012.9
20260505160109 12 2 4.8 14.5 0.00 0.00 0.00 66 1012.6
20260505153102 12 348 4.8 17.7 0.00 0.00 0.00 64 1013.1
20260505152059 12 351 6.4 17.7 0.00 0.00 0.00 64 1013.1
20260505151057 12 352 4.8 17.7 0.00 0.00 0.00 67 1012.8
20260505124018 11 324 4.8 11.3 0.00 0.00 0.00 69 1013.7
20260505123016 11 348 3.2 12.9 0.00 0.00 0.00 70 1013.6
20260505122115 11 350 4.8 11.3 0.00 0.00 0.00 69 1013.6
20260505121111 11 5 4.8 9.7 0.00 0.00 0.00 69 1013.4
20260505120109 11 7 1.6 6.4 0.00 0.00 0.00 69 1013.6
20260505115106 11 358 3.2 9.7 0.00 0.00 0.00 71 1013.7